Tracking 26544 objects as of 9-Dec-2022
HD Live streaming from Space Station
objects crossing your sky now

STARLINK-5177

Track STARLINK-5177 now!
10-day predictions
STARLINK-5177 is classified as:


NORAD ID: 54090
Int'l Code: 2022-136AR
Perigee: 417.9 km
Apogee: 419.5 km
Inclination: 53.2 °
Period: 92.8 minutes
Semi major axis: 6789 km
RCS: Unknown
Launch date: October 20, 2022
Source: United States (US)
Launch site: AIR FORCE EASTERN TEST RANGE (AFETR)
aabbcc
Your satellite tracking list
Your tracking list is empty




NASA's NSSDC Master Catalog

Two Line Element Set (TLE):
1 54090U 22136AR  22342.91668981 -.01129823  00000-0 -20626-1 0  9998
2 54090  53.2176 264.5495 0001193  66.0713 224.7843 15.51771846  1305
Source of the keplerian elements: AFSPC